Duchifat 3
1 44854U 19089C   25130.83886509  .00037894  00000-0  80411-3 0  9998
2 44854  36.9433 183.9414 0000440  48.2563 311.8230 15.44114112298349
TO-108
1 44881U 19093C   25130.85612693  .00001108  00000-0  13423-3 0  9994
2 44881  97.7928 207.1272 0013048 334.7704  25.2872 14.85540123291667
FloripaSat 1
1 44885U 19093G   25130.82932202  .00005549  00000-0  47277-3 0  9993
2 44885  97.8147 218.3776 0009733 305.3135  54.7176 14.98142837292294
RS-44
1 44909U 19096E   25130.68940560  .00000006  00000-0 -21464-4 0  9998
2 44909  82.5215 247.1347 0217423   5.7746 354.5785 12.79740384250916
UPMSat 2
1 46276U 20061E   25130.73172264  .00064104  00000-0  65418-3 0  9999
2 46276  97.2461 204.1961 0001306 157.4201 202.7116 15.64880005260799
SALSAT
1 46495U 20068K   25130.44970671  .00007590  00000-0  33219-3 0  9995
2 46495  97.8582 107.0999 0009444 266.4145  93.6010 15.22318161253945
CubeSX-Sirius-HSE
1 47951U 21022V   25130.87976485  .00259446  00000-0  11448-2 0  9998
2 47951  97.4165  42.6896 0007850  95.1223 265.0943 15.83781900229135
CubeSX-HSE
1 47952U 21022W   25130.89381494  .00259034  00000-0  11191-2 0  9999
2 47952  97.4169  42.9632 0007268  94.8398 265.3701 15.84237213229154
GRBAlpha
1 47959U 21022AD  25130.87917692  .00270283  00000-0  12336-2 0  9990
2 47959  97.4171  43.0359 0007348  94.3327 265.8782 15.83038694227971
TUBIN
1 48900U 21059X   25130.88205082  .00044060  00000-0  58890-3 0  9999
2 48900  97.6732 297.7596 0002354 343.0244  17.0932 15.57929844215415
LEDSAT
1 49069U 21073D   25130.71204245  .00058115  00000-0  80335-3 0  9999
2 49069  97.3910 211.0902 0011851 183.6680 176.4490 15.56881037206780
CUTE
1 49263U 21088D   25130.46230896  .00021742  00000-0  44844-3 0  9995
2 49263  97.4527 205.8685 0007511 359.7858   0.3386 15.45873486199777
TeikyoSat 4
1 49396U 21102B   25130.48385548  .00001663  00000-0  11338-3 0  9998
2 49396  97.4124 169.9973 0011166 231.4335 128.5893 15.07510353192019
Z-Sat
1 49399U 21102E   25130.81656278  .00004394  00000-0  24369-3 0  9991
2 49399  97.3825 173.2325 0017661 202.0511 157.9963 15.14148443192473
KOSEN 1
1 49402U 21102H   25130.65317525  .00007260  00000-0  34026-3 0  9993
2 49402  97.3735 176.2663 0016320 177.5908 182.5409 15.19868229192748
HO-113
1 50466U 21131B   25130.89900968  .00000623  00000-0  20852-3 0  9990
2 50466  98.5088 220.4001 0003577 209.0042 151.0948 14.40777356177174
IRIS-A
1 51044U 22002BN  25130.61441230  .00283748  30998-4  10228-2 0  9992
2 51044  97.3223 209.7337 0006558 234.8970 125.1688 15.88625816185128
Foresail-1
1 52766U 22057AL  25130.38387282  .00223428  00000-0  10613-2 0  9998
2 52766  97.6035 278.9302 0002708 286.1881  73.9089 15.82322819165100
SNUGLITE 2
1 52899U 22065F   25130.40061380  .00001411  00000-0  28352-3 0  9991
2 52899  98.1643 272.6766 0007253 198.5977 161.4961 14.63137847152072
IO-117
1 53106U 22080B   25051.21822557 -.00000003  00000-0  00000+0 0  9995
2 53106  70.1434 106.3440 0008542  48.0089 312.1297  6.42557744 61200
UmKA 1 (RS40S)
1 57172U 23091G   25130.88878856  .00006605  00000-0  35600-3 0  9990
2 57172  97.5606 186.4290 0016125  79.8530 280.4520 15.15014636102987
CubeBel-2 (EU11S)
1 57175U 23091K   25130.86170483  .00010155  00000-0  49100-3 0  9997
2 57175  97.5604 187.3740 0013978  88.7682 271.5153 15.18724178103041
VERONIKA
1 58261U 23174F   25130.75363492  .00115289  00000-0  12574-2 0  9996
2 58261  97.4140 215.3151 0006840 169.5765 190.5636 15.62978146 84016
ENSO
1 58470U 23185J   25130.89305602  .00045539  00000-0  73503-3 0  9994
2 58470  97.3759 205.1296 0008787 183.4369 176.6825 15.52722255 80420
EIRSAT-1
1 58472U 23185L   25130.83947032  .00081942  00000-0  94222-3 0  9998
2 58472  97.3723 206.5215 0007839 185.9606 174.1560 15.61716383 80511
SONATE-2
1 59112U 24043Q   25130.31742944  .00022837  00000-0  67785-3 0  9994
2 59112  97.5094 260.9199 0011068 216.8346 143.2137 15.34751466 65695
MO-122
1 60209U 24125G   25130.85941833  .00018023  00000-0  52883-3 0  9996
2 60209  97.2828 342.8290 0017745 240.9135 119.0332 15.35061660 47396
GRBBeta
1 60237U 24128C   25130.85427656  .00003392  00000-0  26425-3 0  9998
2 60237  61.9909 183.1791 0049488  50.7044 309.8420 15.02365163 45734
Curium One
1 60242U 24128H   25130.87127197  .00006192  00000-0  44131-3 0  9998
2 60242  61.9807 181.8301 0049389  46.3015 314.2152 15.04648164 45760
ROBUSTA-3A
1 60243U 24128J   25130.46620728  .00006175  00000-0  44589-3 0  9990
2 60243  61.9880 183.9774 0047905  43.9950 316.4939 15.04220254 45697
CatSat
1 60246U 24125J   25130.14960592  .00012716  00000-0  43200-3 0  9998
2 60246  97.2620 341.6787 0042712 200.3969 159.5568 15.29715311 45336
HYPERVIEW-1G (RS66S)
1 61772U 24199AP  25130.88269129  .00018976  00000-0  57174-3 0  9992
2 61772  97.3579 359.8230 0011981 302.4588  57.5496 15.34303439 72409
AO-123
1 61781U 24199AY  25130.85195790  .00007091  00000-0  26188-3 0  9998
2 61781  97.3592 358.9765 0014365 307.2782  52.7147 15.27958114 72346
ZIMSAT 2
1 61783U 24199BA  25130.89612103  .00032147  00000-0  84099-3 0  9991
2 61783  97.3564   0.2443 0011828 299.4528  60.5536 15.38606967 75584
HADES-R (SO-124)
1 62690U 25009CK  25130.48788960  .00045290  00000-0  16988-2 0  9994
2 62690  97.4102 211.4586 0004433 179.1169 181.0079 15.27079143 17556
HYDRA-T
1 62692U 25009CM  25130.47783741  .00046826  00000-0  17450-2 0  9998
2 62692  97.4105 211.4716 0004302 173.7237 186.4057 15.27286700 17551
JINJUSat 1B
1 63210U 25052A   25130.51652407  .00013146  00000-0  61330-3 0  9998
2 63210  97.4460  25.0306 0006419  75.5325 284.6622 15.19960098  8687
NUSHSAT 1
1 63211U 25052B   25130.44933003  .00017578  00000-0  81490-3 0  9997
2 63211  97.4452  24.9614 0006479  79.4924 280.7041 15.20112296  8675
TEVEL2-4
1 63213U 25052D   25130.25984877  .00016579  00000-0  77502-3 0  9992
2 63213  97.4365  24.6972 0005605  92.1403 268.0474 15.19841837  8642
TEVEL2-5
1 63214U 25052E   25130.45763737  .00016706  00000-0  78110-3 0  9993
2 63214  97.4366  24.8917 0005628  91.8601 268.3279 15.19833167  8672
TEVEL2-6
1 63215U 25052F   25130.45898319  .00016281  00000-0  76226-3 0  9993
2 63215  97.4366  24.8906 0005690  92.4976 267.6910 15.19793071  8675
TEVEL2-1
1 63217U 25052H   25130.66344873  .00012779  00000-0  60272-3 0  9991
2 63217  97.4343  25.0585 0005853 101.1219 259.0675 15.19592990  8701
TEVEL2-2
1 63218U 25052J   25130.59786664  .00013351  00000-0  62957-3 0  9991
2 63218  97.4343  24.9938 0005876 101.5081 258.6813 15.19587701  8699
TEVEL2-3
1 63219U 25052K   25130.59790306  .00013185  00000-0  62190-3 0  9994
2 63219  97.4342  24.9936 0005840 101.4291 258.7600 15.19584231  8690
TEVEL2-8
1 63237U 25052AD  25130.24449630  .00015485  00000-0  75416-3 0  9997
2 63237  97.4407  24.5946 0010176 115.0029 245.2263 15.18401257  8632
TEVEL2-9
1 63238U 25052AE  25130.44347040  .00014888  00000-0  72620-3 0  9992
2 63238  97.4410  24.7886 0010367 114.5336 245.6980 15.18356379  8666
TEVEL2-7
1 63239U 25052AF  25130.44473381  .00012756  00000-0  62352-3 0  9994
2 63239  97.4410  24.7861 0010352 115.0314 245.1996 15.18318521  8665
HYDRA-W
1 63490U 25052BL  25130.44272142  .00036138  00000-0  15918-2 0  9990
2 63490  97.4358  24.9067 0014725 113.9682 246.3098 15.21636103  8678
HADES-ICM
1 63492U 25052BN  25130.25278798  .00034595  00000-0  15401-2 0  9996
2 63492  97.4365  24.7045 0014863 118.0132 242.2609 15.21280468  8640
